Location: Brunnen
(48.6541°N, 10.9920°E)
Time: 07:13:07
(UTC+00:00)

SPOT 1/Viking Rocket - Pass Details

Date: 01 June 2020
Orbit: 777 x 794 km, 98.5° (Epoch: 07 July)

Event Time Altitude Azimuth Distance (km) Brightness Sun altitude
Exits shadow 20:45:16 11° 176° (S) 2,247 5.4 -11.7°
Maximum altitude 20:50:09 65° 258° (WSW) 859 3.8 -12.2°
Drops below altitude 10° 20:55:17 10° 340° (NNW) 2,343 7.4 -12.7°
Sets 20:57:38 0° 344° (NNW) 3,274 8.4 -12.9°
